Camdenton, MO

10:05 PM CDT on May 27, 2017 (GMT -0500)
Camdenton

Weather History for KH21 - March, 2014

Change the Weather History Date:

Friday, March 21, 2014

  Actual Average (KAIZ) Record (KAIZ)
Temperature  
Mean Temperature 62 °F -  
Max Temperature 75 °F 55 °F 84 °F (1997)
Min Temperature 48 °F 34 °F 17 °F (2013)
Degree Days  
Heating Degree Days 4    
Growing Degree Days 12 (Base 50)    
Moisture  
Dew Point 31 °F    
Average Humidity 35    
Maximum Humidity 47    
Minimum Humidity 22    
Precipitation  
Precipitation 0.00 in - - ()
Sea Level Pressure  
Sea Level Pressure 29.89 in    
Wind  
Wind Speed 11 mph (SSW)    
Max Wind Speed 22 mph    
Max Gust Speed 34 mph    
Visibility 10 miles    
Events      
Averages and records for this station are not official NWS values.
T = Trace of Precipitation, MM = Missing Value Source: NWS Daily Summary

Daily Weather History Graph

Daily Weather History Graph

Search for Another Location

Airport or City:

Trip Planner

Search our weather history database for the weather conditions in past years. The results will help you decide how hot, cold, wet, or windy it might be!

Date:

Astronomy

Mar. 21, 2014 Rise Set
Actual Time 7:12 AM CDT 7:23 PM CDT
Civil Twilight 6:46 AM CDT 7:49 PM CDT
Nautical Twilight 6:15 AM CDT 8:20 PM CDT
Astronomical Twilight 5:44 AM CDT 8:51 PM CDT
Moon No Moon Rise 10:09 AM CDT (3/21)
Length of Visible Light 13h 03m
Length of Day
12h 10m
Waning Gibbous, 75% of the Moon is Illuminated
Mar 21
Waning Gibbous
Mar 23
Last Quarter
Mar 30
New
Apr 7
First Quarter
Apr 15
Full

Hourly Weather History & Observations

Time (CDT) Temp. Dew Point Humidity Pressure Visibility Wind Dir Wind Speed Gust Speed Precip Events Conditions
12:15 AM 53.6 °F 21.2 °F 28% 29.93 in 10.0 mi South 6.9 mph - N/A   Clear
12:35 AM 51.8 °F 21.2 °F 30% 29.93 in 10.0 mi South 8.1 mph - N/A   Clear
12:55 AM 51.8 °F 23.0 °F 33% 29.93 in 10.0 mi South 8.1 mph - N/A   Clear
1:15 AM 51.8 °F 23.0 °F 33% 29.93 in 10.0 mi South 9.2 mph - N/A   Clear
1:35 AM 53.6 °F 23.0 °F 30% 29.93 in 10.0 mi South 10.4 mph 18.4 mph N/A   Clear
1:55 AM 53.6 °F 23.0 °F 30% 29.93 in 10.0 mi SSW 11.5 mph - N/A   Clear
2:15 AM 53.6 °F 24.8 °F 33% 29.92 in 10.0 mi South 9.2 mph 16.1 mph N/A   Clear
2:35 AM 53.6 °F 23.0 °F 30% 29.92 in 10.0 mi South 10.4 mph - N/A   Clear
2:55 AM 51.8 °F 24.8 °F 35% 29.91 in 10.0 mi South 10.4 mph - N/A   Clear
3:15 AM 51.8 °F 24.8 °F 35% 29.91 in 10.0 mi South 9.2 mph - N/A   Clear
3:35 AM 51.8 °F 24.8 °F 35% 29.90 in 10.0 mi South 9.2 mph - N/A   Clear
3:55 AM 51.8 °F 24.8 °F 35% 29.90 in 10.0 mi SSW 9.2 mph 18.4 mph N/A   Clear
4:15 AM 51.8 °F 26.6 °F 38% 29.90 in 10.0 mi South 10.4 mph - N/A   Clear
4:35 AM 51.8 °F 26.6 °F 38% 29.89 in 10.0 mi South 11.5 mph - N/A   Clear
4:55 AM 51.8 °F 26.6 °F 38% 29.89 in 10.0 mi South 11.5 mph 16.1 mph N/A   Clear
5:15 AM 51.8 °F 26.6 °F 38% 29.89 in 10.0 mi South 8.1 mph - N/A   Clear
5:35 AM 51.8 °F 26.6 °F 38% 29.89 in 10.0 mi South 9.2 mph - N/A   Clear
5:55 AM 51.8 °F 26.6 °F 38% 29.89 in 10.0 mi South 9.2 mph - N/A   Clear
6:15 AM 50.0 °F 26.6 °F 40% 29.88 in 10.0 mi South 10.4 mph - N/A   Clear
6:35 AM 50.0 °F 26.6 °F 40% 29.88 in 10.0 mi South 8.1 mph - N/A   Clear
6:55 AM 50.0 °F 28.4 °F 43% 29.88 in 10.0 mi South 8.1 mph - N/A   Clear
7:15 AM 50.0 °F 28.4 °F 43% 29.88 in 10.0 mi South 8.1 mph - N/A   Clear
7:35 AM 50.0 °F 28.4 °F 43% 29.88 in 10.0 mi South 9.2 mph - N/A   Clear
7:55 AM 48.2 °F 28.4 °F 46% 29.88 in 10.0 mi SSE 6.9 mph - N/A   Clear
8:15 AM 50.0 °F 28.4 °F 43% 29.89 in 10.0 mi South 6.9 mph - N/A   Clear
8:35 AM 50.0 °F 28.4 °F 43% 29.89 in 10.0 mi SSE 8.1 mph - N/A   Clear
8:55 AM 51.8 °F 28.4 °F 41% 29.89 in 10.0 mi SSE 10.4 mph - N/A   Clear
9:15 AM 55.4 °F 28.4 °F 36% 29.89 in 10.0 mi South 8.1 mph 16.1 mph N/A   Clear
9:35 AM 59.0 °F 28.4 °F 31% 29.88 in 10.0 mi South 12.7 mph - N/A   Clear
9:55 AM 60.8 °F 30.2 °F 31% 29.88 in 10.0 mi South 10.4 mph 18.4 mph N/A   Clear
10:15 AM 62.6 °F 28.4 °F 27% 29.89 in 10.0 mi South 12.7 mph 17.3 mph N/A   Clear
10:35 AM 62.6 °F 30.2 °F 30% 29.89 in 10.0 mi South 9.2 mph - N/A   Clear
10:55 AM 66.2 °F 30.2 °F 26% 29.88 in 10.0 mi South 12.7 mph 17.3 mph N/A   Clear
11:15 AM 68.0 °F 30.2 °F 24% 29.87 in 10.0 mi SSE 16.1 mph 19.6 mph N/A   Clear
11:35 AM 69.8 °F 30.2 °F 23% 29.86 in 10.0 mi South 12.7 mph 23.0 mph N/A   Clear
11:55 AM 69.8 °F 30.2 °F 23% 29.86 in 10.0 mi South 15.0 mph 23.0 mph N/A   Clear
12:15 PM 69.8 °F 30.2 °F 23% 29.85 in 10.0 mi SSE 17.3 mph - N/A   Clear
12:35 PM 71.6 °F 30.2 °F 22% 29.83 in 10.0 mi SSE 19.6 mph 25.3 mph N/A   Clear
12:55 PM 71.6 °F 30.2 °F 22% 29.81 in 10.0 mi SSE 19.6 mph 26.5 mph N/A   Clear
1:15 PM 71.6 °F 32.0 °F 23% 29.82 in 10.0 mi SSW 13.8 mph 27.6 mph N/A   Clear
1:35 PM 73.4 °F 32.0 °F 22% 29.80 in 10.0 mi South 19.6 mph 25.3 mph N/A   Clear
1:55 PM 73.4 °F 35.6 °F 25% 29.79 in 10.0 mi South 18.4 mph 21.9 mph N/A   Clear
2:15 PM 75.2 °F 37.4 °F 25% 29.79 in 10.0 mi SW 17.3 mph 25.3 mph N/A   Clear
2:35 PM 73.4 °F 37.4 °F 27% 29.79 in 10.0 mi SSW 19.6 mph 25.3 mph N/A   Clear
2:55 PM 73.4 °F 37.4 °F 27% 29.79 in 10.0 mi SSW 20.7 mph 32.2 mph N/A   Clear
3:15 PM 73.4 °F 37.4 °F 27% 29.79 in 10.0 mi SSW 19.6 mph 26.5 mph N/A   Scattered Clouds
3:35 PM 71.6 °F 39.2 °F 31% 29.79 in 10.0 mi SW 19.6 mph 34.5 mph N/A   Clear
3:55 PM 71.6 °F 41.0 °F 33% 29.79 in 10.0 mi SW 11.5 mph 23.0 mph N/A   Scattered Clouds
4:15 PM 71.6 °F 41.0 °F 33% 29.79 in 10.0 mi SW 15.0 mph 28.8 mph N/A   Scattered Clouds
4:35 PM 71.6 °F 41.0 °F 33% 29.80 in 10.0 mi SW 19.6 mph 28.8 mph N/A   Mostly Cloudy
4:55 PM 71.6 °F 41.0 °F 33% 29.80 in 10.0 mi SW 15.0 mph 21.9 mph N/A   Mostly Cloudy
5:10 PM 69.8 °F 41.0 °F 35% 29.80 in 10.0 mi WSW 15.0 mph 21.9 mph N/A   Scattered Clouds
5:35 PM 69.8 °F 41.0 °F 35% 29.81 in 10.0 mi SW 12.7 mph 21.9 mph N/A   Scattered Clouds
5:55 PM 69.8 °F 41.0 °F 35% 29.82 in 10.0 mi SW 12.7 mph 21.9 mph N/A   Clear
6:15 PM 66.2 °F 35.6 °F 32% 29.84 in 10.0 mi WNW 21.9 mph 28.8 mph N/A   Clear
6:35 PM 64.4 °F 35.6 °F 34% 29.85 in 10.0 mi WNW 15.0 mph - N/A   Clear
6:55 PM 62.6 °F 35.6 °F 37% 29.87 in 10.0 mi WNW 13.8 mph 18.4 mph N/A   Clear
7:15 PM 62.6 °F 33.8 °F 34% 29.88 in 10.0 mi WNW 12.7 mph 20.7 mph N/A   Clear
7:35 PM 60.8 °F 33.8 °F 36% 29.89 in 10.0 mi West 9.2 mph - N/A   Clear
7:55 PM 59.0 °F 33.8 °F 39% 29.91 in 10.0 mi WNW 10.4 mph - N/A   Clear
8:15 PM 59.0 °F 32.0 °F 36% 29.93 in 10.0 mi NW 10.4 mph 19.6 mph N/A   Clear
8:35 PM 55.4 °F 32.0 °F 41% 29.94 in 10.0 mi NW 9.2 mph 16.1 mph N/A   Clear
8:55 PM 55.4 °F 32.0 °F 41% 29.95 in 10.0 mi NW 8.1 mph - N/A   Clear
9:15 PM 53.6 °F 32.0 °F 44% 29.96 in 10.0 mi WNW 9.2 mph - N/A   Clear
9:35 PM 53.6 °F 33.8 °F 47% 29.97 in 10.0 mi WNW 9.2 mph - N/A   Clear
9:55 PM 53.6 °F 33.8 °F 47% 29.98 in 10.0 mi WNW 9.2 mph - N/A   Clear
10:15 PM 53.6 °F 32.0 °F 44% 30.00 in 10.0 mi NW 9.2 mph - N/A   Clear
10:35 PM 53.6 °F 32.0 °F 44% 30.01 in 10.0 mi NW 6.9 mph - N/A   Clear
10:55 PM 53.6 °F 32.0 °F 44% 30.01 in 10.0 mi NW 8.1 mph - N/A   Clear
11:15 PM 53.6 °F 30.2 °F 41% 30.02 in 10.0 mi NW 10.4 mph - N/A   Clear
11:35 PM 53.6 °F 30.2 °F 41% 30.03 in 10.0 mi NNW 12.7 mph 23.0 mph N/A   Clear
11:55 PM 51.8 °F 30.2 °F 44% 30.04 in 10.0 mi NNW 15.0 mph 25.3 mph N/A   Clear